User: anonymous   Login
Location: Stoke Bliss
(52.2667°N, 2.5167°W)
Time: 10:34:27
(UTC+00:00)
Language:

Cosmos 2369 Rocket - Orbit

View from above orbital plane
View from above orbital plane
View from above satellite
View from above satellite

Ground track
Ground track

The orbit data is extracted from the following two-line orbital elements,

1 26070U 00006B   21133.40343136 -.00000230  00000-0 -93029-4 0  9999
2 26070  71.0029 199.8986 0017551 334.6420  25.3839 14.15476297 99326
Epoch (UTC): 13 May 2021 09:40:56
Eccentricity: 0.0017551
inclination: 71.0029°
perigee height: 828 km
apogee height: 853 km
right ascension of ascending node: 199.8986°
argument of perigee: 334.6420°
revolutions per day: 14.15476297
mean anomaly at epoch: 25.3839°
orbit number at epoch: 9932

The dashed part of the orbit path shows where the satellite is in the earth's shadow,  

DLR